Content
SEND FEEDBACK

Daily
Averages
Monthly
Summary
United States of America

EUREKA, CALIFORNIA


Home > North America > United States > California
Elevation: 59 feet     Latitude: 40 48N     Longitude: 124 07W

WEATHER
 
SELECT A DAY
Number of Records: 243,542;   Date Range: 1/1/95 - 10/19/14
 
SHARE

PRINT THIS DATA

[ ← Previous Day ]
WEATHER ALMANAC - FEBRUARY 6, 2013
[ Next Day → ]
[ °C ]   °F
Weather ElementAverageHighLow
Temperature46.5 °F51.8 °F (11:43 am)39.9 °F (4:53 am)
Dewpoint41.1 °F44.1 °F (3:53 pm)37.9 °F (4:53 am)
Humidity82.2 %93 % (12:46 am)66 % (10:53 am)
Barometer30.17 in30.22 in (12:53 am)30.07 in (10:53 pm)
Wind Speed6.7 mph15 mph (11:53 pm)
Wind Gust21.9 mph (11:53 pm)
Weather ElementAverage
Visibility9.3 mi
Wind DirectionSSE (159.7 °)

Weather ElementTotal
Precipitation0.07 in
Heating Degree Days19.2 (Base 65)
Averaged from 30 records on February 6, 2013
WEATHER CONDITIONS BREAKOUT
WIND DIRECTION BREAKOUT
WEATHER BY HOUR - FEBRUARY 6, 2013
[ °C ]   °F
Local TimeTemperatureDewpointHumidityBarometerVisibilityWind DirectionWind SpeedGust SpeedPrecipitationEventsConditions
12:46 AM44.6 °F42.8 °F93 %30.21 in10.0 miSE (140°)4.6 mph0.00 inOvercast
12:53 AM45.0 °F42.1 °F90 %30.22 in10.0 miSE (130°)4.6 mph0.00 inOvercast
1:05 AM44.6 °F42.8 °F93 %30.20 in10.0 miESE (110°)4.6 mphMostly Cloudy
1:24 AM44.6 °F42.8 °F93 %30.20 in10.0 miESE (110°)3.5 mphMostly Cloudy
1:53 AM44.1 °F42.1 °F93 %30.22 in10.0 miEast (100°)5.8 mphOvercast
2:17 AM44.6 °F42.8 °F93 %30.19 in10.0 miEast (100°)5.8 mphOvercast
2:53 AM43.0 °F41.0 °F93 %30.22 in10.0 miSE (130°)3.5 mphPartly Cloudy
3:53 AM41.0 °F39.0 °F93 %30.21 in10.0 miSE (130°)3.5 mphClear
4:53 AM39.9 °F37.9 °F93 %30.21 in10.0 miESE (120°)3.5 mphPartly Cloudy
5:53 AM39.9 °F37.9 °F93 %30.21 in10.0 miESE (120°)4.6 mphPartly Cloudy
6:53 AM39.9 °F37.9 °F93 %30.21 in10.0 miESE (120°)5.8 mphMostly Cloudy
7:53 AM39.9 °F37.9 °F93 %30.22 in10.0 miESE (120°)4.6 mphScattered Clouds
8:53 AM44.1 °F37.9 °F79 %30.22 in10.0 miESE (120°)5.8 mphClear
9:53 AM48.0 °F41.0 °F77 %30.22 in10.0 miESE (110°)4.6 mphClear
10:53 AM51.1 °F39.9 °F66 %30.22 in10.0 miSouth (170°)4.6 mphClear
11:43 AM51.8 °F42.8 °F71 %30.19 in6.0 miSW (230°)11.5 mphHaze
11:53 AM51.1 °F43.0 °F74 %30.20 in7.0 miSW (230°)11.5 mphMostly Cloudy
12:04 PM51.8 °F42.8 °F71 %30.18 in9.0 miSW (220°)9.2 mphScattered Clouds
12:53 PM50.0 °F42.1 °F74 %30.18 in7.0 miSW (220°)10.4 mphMostly Cloudy
1:53 PM51.1 °F43.0 °F74 %30.15 in9.0 miSSW (210°)6.9 mphMostly Cloudy
2:53 PM50.0 °F43.0 °F77 %30.14 in10.0 miSW (220°)10.4 mphClear
3:53 PM50.0 °F44.1 °F80 %30.14 in8.0 miSSW (210°)10.4 mphClear
4:53 PM50.0 °F41.0 °F71 %30.13 in10.0 miSouth (180°)8.1 mphOvercast
5:53 PM48.9 °F41.0 °F74 %30.12 in8.0 miSSE (160°)4.6 mphOvercast
6:53 PM48.0 °F42.1 °F80 %30.11 in10.0 miSouth (170°)5.8 mph0.00 inRainLight Rain
7:53 PM48.0 °F41.0 °F77 %30.10 in10.0 miSouth (180°)6.9 mph0.00 inOvercast
8:53 PM48.0 °F39.9 °F74 %30.09 in10.0 miSSE (160°)8.1 mph0.00 inOvercast
9:53 PM48.0 °F39.0 °F71 %30.08 in10.0 miSSE (160°)6.9 mphOvercast
10:53 PM48.0 °F39.9 °F74 %30.07 in10.0 miSSE (160°)6.9 mph0.01 inRainLight Rain
11:53 PM46.0 °F43.0 °F89 %30.09 in4.0 miWSW (250°)15.0 mph21.9 mph0.06 inRainRain
Hourly data recorded from KACV, located miles away from Eureka, California







STORIES FROM OUR PARTNERS